| time (UTC) | temp F | wind direction | speed MPH | gust MPH | rain 1hr in | rain 24hr in | rain mn in | humidity % | barometer mb |
| 20260506013053 | 74 | 157 | 0.0 | 8.0 | 0.00 | 0.00 | 0.00 | 39 | 1009.7 |
| 20260506011554 | 74 | 159 | 0.0 | 5.0 | 0.00 | 0.00 | 0.00 | 37 | 1009.4 |
| 20260506010053 | 75 | 162 | 1.0 | 6.0 | 0.00 | 0.00 | 0.00 | 36 | 1009.3 |
| 20260506004552 | 75 | 164 | 1.0 | 11.0 | 0.00 | 0.00 | 0.00 | 35 | 1009.2 |
| 20260506003052 | 76 | 156 | 0.0 | 6.0 | 0.00 | 0.00 | 0.00 | 34 | 1009.1 |
| 20260506001602 | 76 | 155 | 0.0 | 2.0 | 0.00 | 0.00 | 0.00 | 32 | 1009.0 |
| 20260506000118 | 77 | 155 | 0.0 | 6.0 | 0.00 | 0.00 | 0.00 | 31 | 1008.7 |
| 20260505234550 | 77 | 153 | 0.0 | 6.0 | 0.00 | 0.00 | 0.00 | 30 | 1008.7 |
| 20260505233053 | 78 | 153 | 0.0 | 7.0 | 0.00 | 0.00 | 0.00 | 28 | 1008.6 |
| 20260505231555 | 79 | 166 | 0.0 | 7.0 | 0.00 | 0.00 | 0.00 | 28 | 1008.7 |
| 20260505230051 | 79 | 155 | 0.0 | 5.0 | 0.00 | 0.00 | 0.00 | 26 | 1008.5 |
| 20260505224551 | 80 | 153 | 1.0 | 13.0 | 0.00 | 0.00 | 0.00 | 25 | 1008.7 |
| 20260505223048 | 81 | 151 | 3.0 | 10.0 | 0.00 | 0.00 | 0.00 | 24 | 1008.6 |
| 20260505221555 | 81 | 144 | 4.0 | 18.0 | 0.00 | 0.00 | 0.00 | 23 | 1008.5 |
| 20260505214554 | 81 | 164 | 1.0 | 8.0 | 0.00 | 0.00 | 0.00 | 25 | 1008.5 |
| 20260505213045 | 81 | 148 | 1.0 | 16.0 | 0.00 | 0.00 | 0.00 | 23 | 1008.5 |
| 20260505211609 | 82 | 160 | 3.0 | 10.0 | 0.00 | 0.00 | 0.00 | 21 | 1008.3 |
| 20260505210046 | 83 | 184 | 0.0 | 7.0 | 0.00 | 0.00 | 0.00 | 22 | 1008.2 |
| 20260505204556 | 82 | 157 | 1.0 | 17.0 | 0.00 | 0.00 | 0.00 | 21 | 1008.3 |
| 20260505203043 | 83 | 163 | 3.0 | 10.0 | 0.00 | 0.00 | 0.00 | 21 | 1008.3 |
| 20260505201542 | 83 | 170 | 2.0 | 10.0 | 0.00 | 0.00 | 0.00 | 22 | 1008.3 |
| 20260505200041 | 83 | 186 | 2.0 | 10.0 | 0.00 | 0.00 | 0.00 | 22 | 1008.4 |
| 20260505194539 | 83 | 161 | 1.0 | 7.0 | 0.00 | 0.00 | 0.00 | 24 | 1008.4 |
| 20260505193037 | 83 | 151 | 4.0 | 11.0 | 0.00 | 0.00 | 0.00 | 22 | 1008.7 |
| 20260505191536 | 83 | 159 | 4.0 | 18.0 | 0.00 | 0.00 | 0.00 | 23 | 1009.0 |
| 20260505190034 | 83 | 164 | 2.0 | 22.0 | 0.00 | 0.00 | 0.00 | 23 | 1009.4 |
| 20260505184539 | 82 | 162 | 0.0 | 9.0 | 0.00 | 0.00 | 0.00 | 25 | 1009.7 |
| 20260505183030 | 82 | 167 | 5.0 | 15.0 | 0.00 | 0.00 | 0.00 | 24 | 1009.8 |
| 20260505181530 | 82 | 200 | 2.0 | 5.0 | 0.00 | 0.00 | 0.00 | 25 | 1009.8 |
| 20260505180026 | 82 | 173 | 4.0 | 12.0 | 0.00 | 0.00 | 0.00 | 26 | 1010.1 |
| 20260505174535 | 81 | 146 | 5.0 | 15.0 | 0.00 | 0.00 | 0.00 | 26 | 1010.2 |
| 20260505173024 | 81 | 160 | 3.0 | 13.0 | 0.00 | 0.00 | 0.00 | 27 | 1010.1 |
| 20260505171532 | 80 | 157 | 3.0 | 14.0 | 0.00 | 0.00 | 0.00 | 28 | 1010.3 |
| 20260505170024 | 81 | 145 | 3.0 | 12.0 | 0.00 | 0.00 | 0.00 | 28 | 1010.5 |
| 20260505164521 | 80 | 160 | 0.0 | 7.0 | 0.00 | 0.00 | 0.00 | 30 | 1010.8 |
| 20260505163018 | 79 | 169 | 0.0 | 5.0 | 0.00 | 0.00 | 0.00 | 33 | 1010.9 |
| 20260505161514 | 78 | 169 | 1.0 | 6.0 | 0.00 | 0.00 | 0.00 | 33 | 1011.3 |
| 20260505153009 | 77 | 112 | 0.0 | 7.0 | 0.00 | 0.00 | 0.00 | 38 | 1011.8 |
| 20260505151500 | 76 | 159 | 0.0 | 8.0 | 0.00 | 0.00 | 0.00 | 39 | 1011.7 |
| 20260505124529 | 64 | 161 | 0.0 | 5.0 | 0.00 | 0.00 | 0.00 | 54 | 1011.8 |
| 20260505123044 | 63 | 158 | 0.0 | 5.0 | 0.00 | 0.00 | 0.00 | 56 | 1011.9 |
| 20260505121527 | 62 | 158 | 0.0 | 2.0 | 0.00 | 0.00 | 0.00 | 58 | 1011.9 |
| 20260505120026 | 62 | 158 | 0.0 | 1.0 | 0.00 | 0.00 | 0.00 | 58 | 1011.8 |
| 20260505114525 | 61 | 158 | 0.0 | 6.0 | 0.00 | 0.00 | 0.00 | 59 | 1011.6 |
| 20260505113022 | 60 | 158 | 0.0 | 2.0 | 0.00 | 0.00 | 0.00 | 60 | 1011.5 |
| 20260505111531 | 60 | 158 | 0.0 | 3.0 | 0.00 | 0.00 | 0.00 | 61 | 1011.5 |
| 20260505101509 | 60 | 158 | 0.0 | 2.0 | 0.00 | 0.00 | 0.00 | 59 | 1011.0 |
| 20260505100011 | 60 | 158 | 0.0 | 2.0 | 0.00 | 0.00 | 0.00 | 58 | 1010.9 |
| 20260505094507 | 60 | 158 | 0.0 | 2.0 | 0.00 | 0.00 | 0.00 | 56 | 1011.0 |
| 20260505093011 | 61 | 158 | 0.0 | 2.0 | 0.00 | 0.00 | 0.00 | 55 | 1010.7 |
| 20260505091505 | 61 | 158 | 0.0 | 3.0 | 0.00 | 0.00 | 0.00 | 55 | 1011.0 |
| 20260505090007 | 61 | 158 | 0.0 | 5.0 | 0.00 | 0.00 | 0.00 | 54 | 1010.7 |
| 20260505084502 | 61 | 158 | 0.0 | 6.0 | 0.00 | 0.00 | 0.00 | 54 | 1010.7 |
| 20260505083001 | 61 | 157 | 0.0 | 3.0 | 0.00 | 0.00 | 0.00 | 53 | 1010.6 |
| 20260505081608 | 61 | 157 | 0.0 | 3.0 | 0.00 | 0.00 | 0.00 | 52 | 1010.6 |
| 20260505080107 | 61 | 157 | 0.0 | 6.0 | 0.00 | 0.00 | 0.00 | 53 | 1010.4 |
| 20260505074558 | 61 | 156 | 0.0 | 1.0 | 0.00 | 0.00 | 0.00 | 53 | 1010.4 |
| 20260505073101 | 61 | 156 | 0.0 | 0.0 | 0.00 | 0.00 | 0.00 | 53 | 1010.5 |
| 20260505071556 | 61 | 156 | 0.0 | 2.0 | 0.00 | 0.00 | 0.00 | 52 | 1010.4 |
| 20260505070100 | 61 | 156 | 0.0 | 1.0 | 0.00 | 0.00 | 0.00 | 53 | 1010.2 |
| 20260505064631 | 62 | 156 | 0.0 | 2.0 | 0.00 | 0.00 | 0.00 | 53 | 1010.1 |
| 20260505063052 | 62 | 156 | 0.0 | 1.0 | 0.00 | 0.00 | 0.00 | 52 | 1010.2 |
| 20260505061549 | 63 | 156 | 0.0 | 3.0 | 0.00 | 0.00 | 0.00 | 51 | 1010.1 |
| 20260505060047 | 63 | 156 | 0.0 | 3.0 | 0.00 | 0.00 | 0.00 | 51 | 1010.1 |
| 20260505054550 | 63 | 156 | 0.0 | 1.0 | 0.00 | 0.00 | 0.00 | 51 | 1010.0 |
| 20260505053045 | 63 | 156 | 0.0 | 1.0 | 0.00 | 0.00 | 0.00 | 51 | 1009.9 |
| 20260505051543 | 63 | 156 | 0.0 | 2.0 | 0.00 | 0.00 | 0.00 | 50 | 1009.9 |
| 20260505041539 | 65 | 156 | 0.0 | 3.0 | 0.00 | 0.00 | 0.00 | 48 | 1009.8 |
| 20260505040039 | 65 | 156 | 0.0 | 5.0 | 0.00 | 0.00 | 0.00 | 48 | 1009.8 |
| 20260505034552 | 65 | 156 | 0.0 | 2.0 | 0.00 | 0.00 | 0.00 | 48 | 1009.9 |
| 20260505033039 | 65 | 156 | 0.0 | 1.0 | 0.00 | 0.00 | 0.00 | 48 | 1009.9 |
| 20260505031537 | 66 | 156 | 0.0 | 0.0 | 0.00 | 0.00 | 0.00 | 47 | 1010.0 |
| 20260505030046 | 65 | 156 | 0.0 | 3.0 | 0.00 | 0.00 | 0.00 | 47 | 1010.0 |
| 20260505024536 | 65 | 156 | 0.0 | 1.0 | 0.00 | 0.00 | 0.00 | 48 | 1010.0 |
| 20260505023043 | 65 | 156 | 0.0 | 0.0 | 0.00 | 0.00 | 0.00 | 48 | 1009.9 |
| 20260505021535 | 66 | 156 | 0.0 | 0.0 | 0.00 | 0.00 | 0.00 | 46 | 1010.0 |
| 20260505020040 | 67 | 156 | 0.0 | 0.0 | 0.00 | 0.00 | 0.00 | 42 | 1009.9 |
| 20260505014539 | 68 | 156 | 0.0 | 0.0 | 0.00 | 0.00 | 0.00 | 41 | 1009.8 |